STARLINK-4396 (53637 NORAD) Tracking and Keplerian Element Data

This shows tracking and keplerian element data for the satellite.

Feedback or suggestion? Click here.




ElementValue
Catalog53637
NameSTARLINK-4396
Epoch Orbit130
Epoch Day324.91667824
Epoch Year2022
RAAN232.7049
Inclination53.2176
Eccentricity0.0001337
Argument of Perigee56.6682
Mean Anonmoly288.566
Mean Motion15.23063301
Decay Rate-0.01149967
L11 53637U 22104BB 22324.91667824 -.01149967 00000+0 -52239-1 0 9999
L22 53637 53.2176 232.7049 0001337 56.6682 288.5660 15.23063301 1307



Live tracking and technical data element details for STARLINK-4396 (NORAD 53637). STARLINK-4396 can be tracked NOW for your location showing map with azimuth and elevation plus other details from your city location.







IsCatalogInMostPopularTable: catalog: 53637, numindb: -1

Insert: records affected: 1


GetName: 53637 STARLINK-4396

Hit Count: inserted at: Thu, 08 Dec 2022 20:53:36 GMT